User: anonymous
Location: Columbia
(38.9520°N, 92.3340°W)
Time: 10:09:41
(UTC-05:00)
Language:

FENGYUN 3A - Orbit

View from above orbital plane
View from above orbital plane
View from above satellite
View from above satellite

Ground track
Ground track

The orbit data is extracted from the following two-line orbital elements,

1 32958U 08026A   14294.23278642  .00000072  00000-0  54398-4 0  4703
2 32958 098.5395 348.7274 0009193 207.8365 152.2308 14.19480151331727
Epoch (UTC): 21 October 2014 05:35:12
Eccentricity: 0.0009193
inclination: 98.5395°
perigee height: 820 km
apogee height: 834 km
right ascension of ascending node: 348.7274°
argument of perigee: 207.8365°
revolutions per day: 14.19480151
mean anomaly at epoch: 152.2308°
orbit number at epoch: 33172

The dashed part of the orbit path shows where the satellite is in the earth's shadow,  

DLR